Flag for U.S.A. Weather past 2 weeks in Waterbury, Connecticut, U.S.A.

Now
86 °F

Passing clouds.


Feels Like: 88 °F
Forecast: 67 / 91 °F
Wind: 5 mph from North

Location: Oxford

Current Time: Jul 29, 2015 at 1:56:55 PM

Latest Report: Jul 29, 2015 at 12:50 PM


Visibility: 10 mi

Pressure: 30.03 "Hg

Humidity: 52%

Dew point: 66 °F

Location of WaterburyLocation

Historic Weather in Waterbury — Graph

°F

Waterbury temperature yesterday

Maximum temperature yesterday: 84 °F (at 12:50 PM)
Minimum temperature yesterday: 66 °F (at 3:55 AM)
Average temperature yesterday: 74 °F

Past Weeks' High & Low Weather Summary

 TemperatureHumidityPressure
High88 °F (Jul 19, 1:50 PM)83% (Jul 14, 10:55 PM)30.15 "Hg (Jul 14, 10:55 PM)
Low54 °F (Jul 17, 2:35 AM)42% (Jul 23, 4:48 PM)29.61 "Hg (Jul 15, 4:15 AM)
Average70 °F69%29.92 "Hg
* Reported Jul 14 12:50 PM — Jul 29 12:50 PM, Waterbury, Weather by CustomWeather, © 2015

Note: Actual official high and low records may vary slightly from our data, if they occured in-between our weather recording intervals... More about our weather records

Advertising

Waterbury weather history for previous 24 hours

 ConditionsComfort  
Time TempWeatherWind HumidityBarometerVisibility
12:50 PM
Wed, Jul 29
86 °FPassing clouds.5 mph52%30.03 "Hg10 mi
11:55 AM88 °FPassing clouds.5 mph49%30.04 "Hg10 mi
10:50 AM88 °FPartly sunny.No wind55%30.04 "Hg10 mi
9:50 AM82 °FPartly sunny.3 mph66%30.04 "Hg10 mi
8:50 AM79 °FPartly sunny.No wind65%30.03 "Hg10 mi
7:50 AM73 °FPartly sunny.No wind78%30.02 "Hg10 mi
6:50 AM72 °FPartly sunny.No wind73%30.01 "Hg10 mi
5:55 AM68 °FClear.No wind78%30.01 "Hg4 mi
5:35 AM70 °FClear.No wind73%30.00 "Hg10 mi
5:15 AM68 °FClear.No wind78%30.00 "Hg10 mi
4:55 AM70 °FClear.No wind73%30.00 "Hg10 mi
4:35 AM68 °FClear.No wind78%29.99 "Hg10 mi
4:15 AM70 °FClear.3 mph78%29.99 "Hg10 mi
3:35 AM70 °FClear.No wind73%29.99 "Hg10 mi
3:15 AM70 °FClear.3 mph78%29.99 "Hg10 mi
2:55 AM70 °FClear.No wind78%30.00 "Hg10 mi
2:35 AM70 °FClear.No wind78%30.00 "Hg10 mi
2:15 AM72 °FClear.3 mph73%30.01 "Hg10 mi
1:55 AM72 °FClear.No wind73%30.01 "Hg10 mi
1:35 AM70 °FClear.No wind78%30.02 "Hg10 mi
1:15 AM72 °FClear.No wind73%30.02 "Hg10 mi
12:55 AM72 °FClear.No wind73%30.02 "Hg10 mi
12:35 AM72 °FClear.No wind73%30.02 "Hg10 mi
11:55 PM
Tue, Jul 28
72 °FClear.No wind78%30.02 "Hg10 mi
10:55 PM72 °FClear.3 mph78%30.02 "Hg10 mi
10:35 PM72 °FClear.No wind73%30.02 "Hg10 mi
10:15 PM73 °FClear.No wind74%30.02 "Hg10 mi
9:55 PM73 °FClear.No wind74%30.02 "Hg10 mi
9:35 PM73 °FClear.No wind74%30.02 "Hg10 mi
8:50 PM75 °FPassing clouds.No wind74%30.02 "Hg10 mi
7:50 PM82 °FScattered clouds.No wind58%30.01 "Hg10 mi
6:50 PM84 °FScattered clouds.3 mph51%30.01 "Hg10 mi
5:50 PM84 °FBroken clouds.5 mph51%29.99 "Hg10 mi
4:50 PM84 °FBroken clouds.7 mph51%30.01 "Hg10 mi
2:50 PM84 °FBroken clouds.6 mph55%30.00 "Hg10 mi
1:50 PM84 °FBroken clouds.7 mph55%30.01 "Hg10 mi
Weather by CustomWeather, © 2015

See weather overviewHow to use our weather pages